Location: Kergonan
(48.2337°N, 4.5518°W)
Time: 13:02:43
(UTC+00:00)

NOSS 3-1 (A) - Pass Details

Date: 18 January 2020
Orbit: 762 x 1450 km, 63.4° (Epoch: 22 February)

Event Time Altitude Azimuth Distance (km) Brightness Sun altitude
Exits shadow 05:37:24 34° 327° (NNW) 1,551 4.2 -23.6°
Maximum altitude 05:37:44 34° 333° (NNW) 1,554 4.3 -23.6°
Drops below altitude 10° 05:43:55 10° 37° (NE) 2,955 6.4 -22.5°
Sets 05:47:08 0° 46° (NE) 4,036 7.3 -22.0°
